• In Netherlands
  • List of Countries
  • For 7 days
  • Water Temperature
  • Satellite Maps
  • Weather Map
  • Weather Widgets
  • user-avatar
    Login

    Hourly Weather Abomey

    Today, 25 April, Tuesday

    Time Temperature Precipitation Wind Pressure Humidity
    00:00 +28°C° 0 mm 1 mps 739 mmHg 82%
    01:00 +27°C° 0 mm 1 mps 739 mmHg 82%
    02:00 +27°C° 0 mm 2 mps 738 mmHg 83%
    03:00 +27°C° 0 mm 2 mps 738 mmHg 83%
    04:00 +27°C° 0 mm 2 mps 738 mmHg 83%
    05:00 +27°C° 0 mm 2 mps 738 mmHg 83%
    06:00 +27°C° 0 mm 2 mps 738 mmHg 82%
    07:00 +29°C° 0 mm 2 mps 738 mmHg 75%
    08:00 +30°C° 0 mm 2 mps 739 mmHg 69%
    09:00 +31°C° 0 mm 2 mps 739 mmHg 62%
    10:00 +34°C° 0 mm 2 mps 739 mmHg 55%
    11:00 +36°C° 0 mm 2 mps 738 mmHg 47%
    12:00 +38°C° 0 mm 2 mps 738 mmHg 40%
    13:00 +38°C° 0.2 mm 2 mps 737 mmHg 41%
    14:00 +38°C° 0.2 mm 3 mps 737 mmHg 42%
    15:00 +38°C° 0.2 mm 3 mps 736 mmHg 44%
    16:00 +36°C° 0.1 mm 3 mps 736 mmHg 50%
    17:00 +34°C° 0.1 mm 4 mps 737 mmHg 56%
    18:00 +32°C° 0.1 mm 4 mps 737 mmHg 62%
    19:00 +30°C° 0 mm 4 mps 737 mmHg 67%
    20:00 +29°C° 0 mm 3 mps 738 mmHg 72%
    21:00 +28°C° 0 mm 3 mps 738 mmHg 77%
    22:00 +28°C° 0 mm 3 mps 738 mmHg 79%
    23:00 +28°C° 0 mm 2 mps 738 mmHg 80%

    Tomorrow, 26 April, Wednesday

    Time Temperature Precipitation Wind Pressure Humidity
    00:00 +28°C° 0 mm 2 mps 738 mmHg 82%
    01:00 +27°C° 0 mm 2 mps 738 mmHg 83%
    02:00 +27°C° 0 mm 2 mps 737 mmHg 85%
    03:00 +27°C° 0 mm 1 mps 737 mmHg 87%
    04:00 +26°C° 0 mm 1 mps 737 mmHg 87%
    05:00 +26°C° 0 mm 1 mps 737 mmHg 87%
    06:00 +26°C° 0 mm 1 mps 738 mmHg 88%
    07:00 +28°C° 0 mm 2 mps 738 mmHg 78%
    08:00 +30°C° 0 mm 2 mps 739 mmHg 68%
    09:00 +33°C° 0 mm 3 mps 739 mmHg 59%
    10:00 +35°C° 0 mm 3 mps 739 mmHg 53%
    11:00 +36°C° 0 mm 3 mps 739 mmHg 47%
    12:00 +38°C° 0 mm 3 mps 739 mmHg 41%
    13:00 +38°C° 0 mm 3 mps 738 mmHg 42%
    14:00 +37°C° 0 mm 3 mps 737 mmHg 43%
    15:00 +37°C° 0 mm 4 mps 736 mmHg 44%
    16:00 +35°C° 0.1 mm 4 mps 737 mmHg 49%
    17:00 +34°C° 0.1 mm 3 mps 737 mmHg 55%
    18:00 +31°C° 0.1 mm 3 mps 737 mmHg 60%
    19:00 +30°C° 0 mm 3 mps 738 mmHg 65%
    20:00 +29°C° 0 mm 3 mps 738 mmHg 71%
    21:00 +28°C° 0 mm 3 mps 739 mmHg 76%
    22:00 +28°C° 0 mm 3 mps 739 mmHg 79%
    23:00 +27°C° 0 mm 2 mps 739 mmHg 82%

    Day after tomorrow, 27 April, Thursday

    Time Temperature Precipitation Wind Pressure Humidity
    00:00 +27°C° 0 mm 2 mps 739 mmHg 84%
    01:00 +27°C° 0 mm 2 mps 739 mmHg 86%
    02:00 +27°C° 0 mm 2 mps 738 mmHg 87%
    03:00 +26°C° 0 mm 2 mps 738 mmHg 88%
    04:00 +26°C° 0 mm 2 mps 738 mmHg 89%
    05:00 +26°C° 0 mm 2 mps 738 mmHg 90%
    06:00 +26°C° 0 mm 2 mps 739 mmHg 91%
    07:00 +28°C° 0 mm 2 mps 739 mmHg 81%
    08:00 +30°C° 0 mm 2 mps 740 mmHg 71%
    09:00 +33°C° 0 mm 3 mps 740 mmHg 61%
    10:00 +34°C° 0 mm 3 mps 740 mmHg 56%
    11:00 +35°C° 0 mm 3 mps 740 mmHg 50%
    12:00 +37°C° 0 mm 3 mps 739 mmHg 45%
    13:00 +37°C° 0 mm 3 mps 738 mmHg 44%
    14:00 +37°C° 0 mm 3 mps 738 mmHg 44%
    15:00 +37°C° 0 mm 3 mps 737 mmHg 43%
    16:00 +35°C° 0.1 mm 3 mps 737 mmHg 48%
    17:00 +34°C° 0.1 mm 3 mps 737 mmHg 53%
    18:00 +31°C° 0.1 mm 2 mps 738 mmHg 57%
    19:00 +30°C° 0 mm 2 mps 738 mmHg 63%
    20:00 +29°C° 0 mm 2 mps 739 mmHg 68%
    21:00 +28°C° 0 mm 2 mps 739 mmHg 73%
    22:00 +28°C° 0 mm 2 mps 739 mmHg 77%
    23:00 +27°C° 0 mm 2 mps 739 mmHg 80%

    28 April, Friday

    Time Temperature Precipitation Wind Pressure Humidity
    00:00 +27°C° 0 mm 2 mps 739 mmHg 83%
    01:00 +26°C° 0 mm 1 mps 738 mmHg 85%
    02:00 +26°C° 0 mm 1 mps 738 mmHg 88%
    03:00 +26°C° 0 mm 1 mps 738 mmHg 90%
    04:00 +26°C° 0 mm 1 mps 738 mmHg 90%
    05:00 +26°C° 0 mm 1 mps 738 mmHg 90%
    06:00 +25°C° 0 mm 1 mps 739 mmHg 91%
    07:00 +28°C° 0 mm 2 mps 739 mmHg 80%
    08:00 +30°C° 0 mm 2 mps 740 mmHg 69%
    09:00 +33°C° 0 mm 3 mps 740 mmHg 58%
    10:00 +35°C° 0 mm 3 mps 740 mmHg 51%
    11:00 +37°C° 0 mm 3 mps 739 mmHg 45%
    12:00 +39°C° 0 mm 3 mps 739 mmHg 39%
    13:00 +38°C° 0.5 mm 3 mps 738 mmHg 40%
    14:00 +37°C° 0.5 mm 4 mps 738 mmHg 42%
    15:00 +37°C° 0.5 mm 4 mps 737 mmHg 43%
    16:00 +35°C° 0 mm 4 mps 737 mmHg 49%
    17:00 +34°C° 0 mm 3 mps 738 mmHg 54%
    18:00 +31°C° 0 mm 3 mps 738 mmHg 60%
    19:00 +30°C° 0 mm 3 mps 738 mmHg 66%
    20:00 +29°C° 0 mm 3 mps 739 mmHg 72%
    21:00 +28°C° 0 mm 2 mps 739 mmHg 77%
    22:00 +28°C° 0 mm 2 mps 739 mmHg 81%
    23:00 +27°C° 0 mm 2 mps 738 mmHg 84%

    29 April, Saturday

    Time Temperature Precipitation Wind Pressure Humidity
    00:00 +26°C° 0 mm 1 mps 738 mmHg 87%
    01:00 +26°C° 0 mm 1 mps 738 mmHg 89%
    02:00 +26°C° 0 mm 1 mps 737 mmHg 90%
    03:00 +26°C° 0 mm 1 mps 737 mmHg 92%
    04:00 +26°C° 0 mm 1 mps 738 mmHg 92%
    05:00 +25°C° 0 mm 1 mps 738 mmHg 93%
    06:00 +25°C° 0 mm 1 mps 739 mmHg 93%
    07:00 +28°C° 0 mm 2 mps 739 mmHg 82%
    08:00 +30°C° 0 mm 2 mps 740 mmHg 71%
    09:00 +33°C° 0 mm 3 mps 740 mmHg 59%
    10:00 +35°C° 0 mm 3 mps 740 mmHg 52%
    11:00 +37°C° 0 mm 3 mps 739 mmHg 46%
    12:00 +38°C° 0 mm 3 mps 738 mmHg 39%
    13:00 +38°C° 0 mm 3 mps 738 mmHg 40%
    14:00 +38°C° 0 mm 3 mps 737 mmHg 41%
    15:00 +37°C° 0 mm 3 mps 736 mmHg 42%
    16:00 +36°C° 0.1 mm 3 mps 736 mmHg 48%
    17:00 +34°C° 0.1 mm 3 mps 737 mmHg 53%
    18:00 +33°C° 0.1 mm 3 mps 737 mmHg 59%
    19:00 +31°C° 0.1 mm 3 mps 738 mmHg 66%
    20:00 +29°C° 0.1 mm 3 mps 738 mmHg 72%
    21:00 +28°C° 0.1 mm 3 mps 739 mmHg 79%
    22:00 +28°C° 0 mm 2 mps 739 mmHg 82%
    23:00 +27°C° 0 mm 2 mps 739 mmHg 84%

    30 April, Sunday

    Time Temperature Precipitation Wind Pressure Humidity
    00:00 +27°C° 0 mm 2 mps 739 mmHg 86%
    01:00 +27°C° 0 mm 2 mps 739 mmHg 88%
    02:00 +26°C° 0 mm 2 mps 738 mmHg 89%
    03:00 +26°C° 0 mm 1 mps 738 mmHg 90%
    04:00 +26°C° 0 mm 2 mps 738 mmHg 90%
    05:00 +26°C° 0 mm 2 mps 739 mmHg 90%
    06:00 +26°C° 0 mm 2 mps 739 mmHg 90%
    07:00 +28°C° 0 mm 2 mps 739 mmHg 79%
    08:00 +30°C° 0 mm 3 mps 739 mmHg 69%
    09:00 +33°C° 0 mm 3 mps 739 mmHg 59%
    10:00 +35°C° 0 mm 3 mps 739 mmHg 53%
    11:00 +37°C° 0 mm 3 mps 738 mmHg 46%
    12:00 +39°C° 0 mm 3 mps 738 mmHg 40%
    13:00 +38°C° 0.1 mm 3 mps 737 mmHg 42%
    14:00 +38°C° 0.1 mm 3 mps 736 mmHg 43%
    15:00 +37°C° 0.1 mm 3 mps 736 mmHg 45%
    16:00 +36°C° 0 mm 3 mps 736 mmHg 50%
    17:00 +34°C° 0 mm 4 mps 737 mmHg 56%
    18:00 +33°C° 0 mm 4 mps 737 mmHg 62%
    19:00 +30°C° 0.1 mm 4 mps 738 mmHg 68%
    20:00 +29°C° 0.1 mm 4 mps 738 mmHg 75%
    21:00 +28°C° 0.1 mm 3 mps 739 mmHg 81%
    22:00 +28°C° 0 mm 3 mps 738 mmHg 83%
    23:00 +28°C° 0 mm 3 mps 738 mmHg 84%
    Show more